This is the latest recevied weather packets stored in our database for station/object KB0Y. If no packets are shown the sender has not sent any weather packets the latest 1 day(s).
| Time | Temp. | Humidity | Pressure | Rain* | Wind** | Luminosity | Snow |
|---|---|---|---|---|---|---|---|
| 1778000838 | 27.22° C | 58% | 1020.3 hPa | 0 mm | 3.13 m/s, 188° | 594 W/m² | - |
| 1778000535 | 27.22° C | 58% | 1020.3 hPa | 0 mm | 1.34 m/s, 191° | 600 W/m² | - |
| 1778000230 | 27.22° C | 59% | 1020.6 hPa | 0 mm | 2.24 m/s, 187° | 589 W/m² | - |
| 1777999926 | 27.22° C | 61% | 1020.3 hPa | 0 mm | 1.34 m/s, 192° | 210 W/m² | - |
| 1777999622 | 27.22° C | 60% | 1020.3 hPa | 0 mm | 2.24 m/s, 191° | 550 W/m² | - |
| 1777999319 | 27.22° C | 60% | 1020.3 hPa | 0 mm | 4.47 m/s, 188° | 506 W/m² | - |
| 1777999017 | 27.22° C | 61% | 1020.6 hPa | 0 mm | 5.81 m/s, 189° | 572 W/m² | - |
| 1777998715 | 26.67° C | 65% | 1020.6 hPa | 0 mm | 2.68 m/s, 188° | 562 W/m² | - |
| 1777998412 | 26.67° C | 66% | 1020.6 hPa | 0 mm | 3.13 m/s, 187° | 564 W/m² | - |
| 1777997806 | 26.67° C | 69% | 1021 hPa | 0 mm | 3.13 m/s, 210° | 599 W/m² | - |
| 1777997504 | 26.67° C | 69% | 1021 hPa | 0 mm | 3.13 m/s, 210° | 599 W/m² | - |
| 1777997202 | 25° C | 71% | 1021 hPa | 0 mm | 0.89 m/s, 209° | 571 W/m² | - |
| 1777996899 | 25° C | 71% | 1021 hPa | 0 mm | 0.89 m/s, 209° | 571 W/m² | - |
| 1777996595 | 25° C | 70% | 1021 hPa | 0 mm | 1.34 m/s, 191° | 568 W/m² | - |
| 1777996291 | 25° C | 72% | 1021 hPa | 0 mm | 3.58 m/s, 189° | 141 W/m² | - |
| 1777995987 | 25.56° C | 73% | 1021 hPa | 0 mm | 3.58 m/s, 186° | 166 W/m² | - |
| 1777995683 | 25.56° C | 71% | 1021 hPa | 0 mm | 4.92 m/s, 190° | 156 W/m² | - |
| 1777995381 | 25.56° C | 70% | 1021 hPa | 0 mm | 4.02 m/s, 191° | 210 W/m² | - |
| 1777995078 | 25.56° C | 70% | 1021 hPa | 0 mm | 3.58 m/s, 187° | 212 W/m² | - |
| 1777994775 | 25.56° C | 72% | 1021.3 hPa | 0 mm | 3.13 m/s, 198° | 156 W/m² | - |
| 1777994470 | 25.56° C | 71% | 1021.3 hPa | 0 mm | 0.89 m/s, 190° | 203 W/m² | - |
| 1777994166 | 25.56° C | 72% | 1021.6 hPa | 0 mm | 1.79 m/s, 211° | 546 W/m² | - |
| 1777993864 | 25° C | 74% | 1021 hPa | 0 mm | 2.68 m/s, 196° | 505 W/m² | - |
| 1777993559 | 25° C | 73% | 1021.3 hPa | 0 mm | 3.13 m/s, 186° | 374 W/m² | - |
| 1777993256 | 24.44° C | 75% | 1021 hPa | 0 mm | 4.92 m/s, 187° | 359 W/m² | - |
* Rain latest hour (hover to see other rain measurements)
** Current wind speed in m/s (hover to see current wind gust speed)